Time,TemperatureF,DewpointF,PressureIn,WindDirection,WindDirectionDegrees,WindSpeedMPH,WindSpeedGustMPH,Humidity,HourlyPrecipIn,Conditions,Clouds,dailyrainin,SoftwareType,DateUTC
2013-05-02 00:01:00,48.1,40.5,30.13,SE,143,0.0,0.0,75,0.00,CLR,SCT,0.00,WeatherDisplay:10.37,2013-05-02 04:01:00,
2013-05-02 00:06:00,47.8,40.3,30.13,SE,143,0.0,0.0,75,0.00,CLR,SCT,0.00,WeatherDisplay:10.37,2013-05-02 04:06:00,
2013-05-02 00:11:00,47.8,40.3,30.13,SE,143,0.0,0.0,75,0.00,CLR,SCT,0.00,WeatherDisplay:10.37,2013-05-02 04:11:00,
2013-05-02 00:16:00,47.8,40.3,30.12,SE,143,0.0,0.0,75,0.00,CLR,SCT,0.00,WeatherDisplay:10.37,2013-05-02 04:16:00,
2013-05-02 00:21:00,47.8,40.3,30.12,SE,143,0.0,0.0,75,0.00,CLR,SCT,0.00,WeatherDisplay:10.37,2013-05-02 04:21:00,
2013-05-02 00:26:00,47.9,40.4,30.12,SE,143,0.0,0.0,75,0.00,CLR,SCT,0.00,WeatherDisplay:10.37,2013-05-02 04:26:00,
2013-05-02 00:31:00,47.9,40.0,30.12,SE,143,0.0,0.0,74,0.00,CLR,SCT,0.00,WeatherDisplay:10.37,2013-05-02 04:31:00,
2013-05-02 00:36:00,47.8,39.9,30.12,SE,143,0.0,0.0,74,0.00,CLR,SCT,0.00,WeatherDisplay:10.37,2013-05-02 04:36:00,
2013-05-02 00:41:00,47.8,39.9,30.12,SE,143,0.0,0.0,74,0.00,CLR,SCT,0.00,WeatherDisplay:10.37,2013-05-02 04:41:00,
2013-05-02 00:46:00,47.8,39.9,30.12,SE,143,0.0,0.0,74,0.00,CLR,SCT,0.00,WeatherDisplay:10.37,2013-05-02 04:46:00,
2013-05-02 00:51:00,47.7,39.8,30.12,SE,143,0.0,0.0,74,0.00,CLR,SCT,0.00,WeatherDisplay:10.37,2013-05-02 04:51:00,
2013-05-02 00:56:00,47.6,39.7,30.12,SE,143,0.0,0.0,74,0.00,CLR,SCT,0.00,WeatherDisplay:10.37,2013-05-02 04:56:00,
2013-05-02 01:01:00,47.5,40.0,30.11,SE,143,0.0,0.0,75,0.00,CLR,SCT,0.00,WeatherDisplay:10.37,2013-05-02 05:01:00,
2013-05-02 01:06:00,47.5,40.0,30.11,SE,143,0.0,0.0,75,0.00,CLR,SCT,0.00,WeatherDisplay:10.37,2013-05-02 05:06:00,
2013-05-02 01:11:00,47.6,39.7,30.11,SE,143,0.0,0.0,74,0.00,CLR,SCT,0.00,WeatherDisplay:10.37,2013-05-02 05:11:00,
2013-05-02 01:16:00,47.6,40.1,30.11,SE,143,0.0,0.0,75,0.00,CLR,SCT,0.00,WeatherDisplay:10.37,2013-05-02 05:16:00,
2013-05-02 01:21:00,47.7,40.2,30.11,SE,143,0.0,0.0,75,0.00,CLR,SCT,0.00,WeatherDisplay:10.37,2013-05-02 05:21:00,
2013-05-02 01:26:00,47.8,39.9,30.11,SE,143,0.0,0.0,74,0.00,CLR,SCT,0.00,WeatherDisplay:10.37,2013-05-02 05:26:00,
2013-05-02 01:31:00,47.9,40.0,30.11,SE,143,0.0,0.0,74,0.00,CLR,SCT,0.00,WeatherDisplay:10.37,2013-05-02 05:31:00,
2013-05-02 01:36:00,48.0,39.8,30.11,SE,143,0.0,0.0,73,0.00,CLR,SCT,0.00,WeatherDisplay:10.37,2013-05-02 05:36:00,
2013-05-02 01:41:00,48.1,39.9,30.11,SE,143,0.0,0.0,73,0.00,CLR,SCT,0.00,WeatherDisplay:10.37,2013-05-02 05:41:00,
2013-05-02 01:46:00,48.1,39.9,30.11,SE,143,0.0,0.0,73,0.00,CLR,SCT,0.00,WeatherDisplay:10.37,2013-05-02 05:46:00,
2013-05-02 01:51:00,48.0,39.8,30.11,SE,143,0.0,0.0,73,0.00,CLR,SCT,0.00,WeatherDisplay:10.37,2013-05-02 05:51:00,
2013-05-02 01:56:00,47.9,39.7,30.11,SE,143,0.0,0.0,73,0.00,CLR,SCT,0.00,WeatherDisplay:10.37,2013-05-02 05:56:00,
2013-05-02 02:01:00,47.8,39.6,30.11,SE,143,0.0,0.0,73,0.00,CLR,SCT,0.00,WeatherDisplay:10.37,2013-05-02 06:01:00,
2013-05-02 02:06:00,47.9,39.7,30.11,SE,143,0.1,1.1,73,0.00,CLR,SCT,0.00,WeatherDisplay:10.37,2013-05-02 06:06:00,
2013-05-02 02:11:00,48.0,39.8,30.10,SE,143,0.6,1.1,73,0.00,CLR,SCT,0.00,WeatherDisplay:10.37,2013-05-02 06:11:00,
2013-05-02 02:16:00,48.2,39.9,30.10,SE,143,0.0,0.0,73,0.00,CLR,SCT,0.00,WeatherDisplay:10.37,2013-05-02 06:16:00,
2013-05-02 02:21:00,48.3,39.7,30.10,SE,143,0.0,0.0,72,0.00,CLR,SCT,0.00,WeatherDisplay:10.37,2013-05-02 06:21:00,
2013-05-02 02:26:00,48.4,39.8,30.10,SE,143,0.0,0.0,72,0.00,CLR,SCT,0.00,WeatherDisplay:10.37,2013-05-02 06:26:00,
2013-05-02 02:31:00,48.3,39.7,30.10,SE,143,0.0,0.0,72,0.00,CLR,SCT,0.00,WeatherDisplay:10.37,2013-05-02 06:31:00,
2013-05-02 02:36:00,48.3,40.0,30.10,SE,143,0.0,0.0,73,0.00,CLR,SCT,0.00,WeatherDisplay:10.37,2013-05-02 06:36:00,
2013-05-02 02:41:00,48.3,40.7,30.09,SE,143,0.0,0.0,75,0.00,CLR,SCT,0.00,WeatherDisplay:10.37,2013-05-02 06:41:00,
2013-05-02 02:46:00,48.5,40.9,30.10,SE,143,0.0,0.0,75,0.00,CLR,SCT,0.00,WeatherDisplay:10.37,2013-05-02 06:46:00,
2013-05-02 02:51:00,48.3,40.7,30.09,SE,143,0.0,0.0,75,0.00,CLR,SCT,0.00,WeatherDisplay:10.37,2013-05-02 06:51:00,
2013-05-02 02:56:00,48.2,41.0,30.09,SE,143,0.0,0.0,76,0.00,CLR,SCT,0.00,WeatherDisplay:10.37,2013-05-02 06:56:00,
2013-05-02 03:01:00,48.2,41.3,30.09,SE,143,0.0,0.0,77,0.00,CLR,SCT,0.00,WeatherDisplay:10.37,2013-05-02 07:01:00,
2013-05-02 03:06:00,48.1,41.2,30.10,SE,143,0.0,0.0,77,0.00,CLR,SCT,0.00,WeatherDisplay:10.37,2013-05-02 07:06:00,
2013-05-02 03:11:00,48.1,41.2,30.09,SE,143,0.0,0.0,77,0.00,CLR,SCT,0.00,WeatherDisplay:10.37,2013-05-02 07:11:00,
2013-05-02 03:16:00,48.0,40.8,30.09,SE,143,0.0,0.0,76,0.00,CLR,SCT,0.00,WeatherDisplay:10.37,2013-05-02 07:16:00,
2013-05-02 03:21:00,47.9,40.7,30.09,SE,143,0.0,0.0,76,0.00,CLR,SCT,0.00,WeatherDisplay:10.37,2013-05-02 07:21:00,
2013-05-02 03:26:00,47.9,41.0,30.09,SE,143,0.0,0.0,77,0.00,CLR,SCT,0.00,WeatherDisplay:10.37,2013-05-02 07:26:00,
2013-05-02 03:31:00,47.9,40.7,30.09,SE,143,0.0,0.0,76,0.00,CLR,SCT,0.00,WeatherDisplay:10.37,2013-05-02 07:31:00,
2013-05-02 03:36:00,47.9,40.7,30.09,SE,143,0.0,0.0,76,0.00,CLR,SCT,0.00,WeatherDisplay:10.37,2013-05-02 07:36:00,
2013-05-02 03:41:00,48.0,40.8,30.09,SE,143,0.0,0.0,76,0.00,CLR,SCT,0.00,WeatherDisplay:10.37,2013-05-02 07:41:00,
2013-05-02 03:46:00,48.0,40.8,30.09,SE,143,0.0,0.0,76,0.00,CLR,SCT,0.00,WeatherDisplay:10.37,2013-05-02 07:46:00,
2013-05-02 03:51:00,47.9,40.4,30.08,SE,143,0.0,0.0,75,0.00,CLR,SCT,0.00,WeatherDisplay:10.37,2013-05-02 07:51:00,
2013-05-02 03:56:00,47.8,40.6,30.08,SE,143,0.0,0.0,76,0.00,CLR,SCT,0.00,WeatherDisplay:10.37,2013-05-02 07:56:00,
2013-05-02 04:01:00,47.7,40.5,30.08,SE,143,0.0,0.0,76,0.00,CLR,SCT,0.00,WeatherDisplay:10.37,2013-05-02 08:01:00,
2013-05-02 04:06:00,47.7,40.5,30.08,SE,143,0.0,0.0,76,0.00,CLR,SCT,0.00,WeatherDisplay:10.37,2013-05-02 08:06:00,
2013-05-02 04:11:00,47.7,40.5,30.08,SE,143,0.0,0.0,76,0.00,CLR,SCT,0.00,WeatherDisplay:10.37,2013-05-02 08:11:00,
2013-05-02 04:16:00,47.8,40.6,30.08,SE,143,0.0,0.0,76,0.00,CLR,SCT,0.00,WeatherDisplay:10.37,2013-05-02 08:16:00,
2013-05-02 04:21:00,47.9,40.7,30.08,SE,143,0.0,0.0,76,0.00,CLR,SCT,0.00,WeatherDisplay:10.37,2013-05-02 08:21:00,
2013-05-02 04:26:00,47.8,40.6,30.08,SE,143,0.0,0.0,76,0.00,CLR,SCT,0.00,WeatherDisplay:10.37,2013-05-02 08:26:00,
2013-05-02 04:31:00,47.8,40.6,30.08,SE,143,0.0,0.0,76,0.00,CLR,SCT,0.00,WeatherDisplay:10.37,2013-05-02 08:31:00,
2013-05-02 04:36:00,47.9,40.7,30.08,SE,143,0.0,0.0,76,0.00,CLR,SCT,0.00,WeatherDisplay:10.37,2013-05-02 08:36:00,
2013-05-02 04:41:00,47.9,40.7,30.08,SE,143,0.0,0.0,76,0.00,CLR,SCT,0.00,WeatherDisplay:10.37,2013-05-02 08:41:00,
2013-05-02 04:46:00,47.7,40.5,30.08,SE,143,0.0,0.0,76,0.00,CLR,SCT,0.00,WeatherDisplay:10.37,2013-05-02 08:46:00,
2013-05-02 04:51:00,47.4,40.2,30.08,SE,143,0.0,0.0,76,0.00,CLR,SCT,0.00,WeatherDisplay:10.37,2013-05-02 08:51:00,
2013-05-02 04:56:00,47.1,40.3,30.08,SE,143,0.0,0.0,77,0.00,CLR,SCT,0.00,WeatherDisplay:10.37,2013-05-02 08:56:00,
2013-05-02 05:01:00,46.9,40.4,30.08,SE,143,0.0,0.0,78,0.00,CLR,SCT,0.00,WeatherDisplay:10.37,2013-05-02 09:01:00,
2013-05-02 05:06:00,46.7,40.2,30.08,SE,143,0.1,1.1,78,0.00,CLR,SCT,0.00,WeatherDisplay:10.37,2013-05-02 09:06:00,
2013-05-02 05:11:00,46.5,39.7,30.08,SE,143,0.2,1.1,77,0.00,CLR,SCT,0.00,WeatherDisplay:10.37,2013-05-02 09:11:00,
2013-05-02 05:16:00,46.4,39.6,30.08,SE,143,0.0,0.0,77,0.00,CLR,SCT,0.00,WeatherDisplay:10.37,2013-05-02 09:16:00,
2013-05-02 05:21:00,46.5,40.0,30.07,SE,143,0.0,0.0,78,0.00,CLR,SCT,0.00,WeatherDisplay:10.37,2013-05-02 09:21:00,
2013-05-02 05:26:00,46.6,40.1,30.07,SE,143,0.0,0.0,78,0.00,CLR,SCT,0.00,WeatherDisplay:10.37,2013-05-02 09:26:00,
2013-05-02 05:31:00,46.7,40.2,30.07,SE,143,0.0,0.0,78,0.00,CLR,SCT,0.00,WeatherDisplay:10.37,2013-05-02 09:31:00,
2013-05-02 05:36:00,46.8,40.3,30.07,SE,143,0.0,0.0,78,0.00,CLR,SCT,0.00,WeatherDisplay:10.37,2013-05-02 09:36:00,
2013-05-02 05:41:00,46.8,40.3,30.07,SE,143,0.0,0.0,78,0.00,CLR,SCT,0.00,WeatherDisplay:10.37,2013-05-02 09:41:00,
2013-05-02 05:46:00,46.8,40.3,30.07,SE,143,0.0,0.0,78,0.00,CLR,SCT,0.00,WeatherDisplay:10.37,2013-05-02 09:46:00,
2013-05-02 05:51:00,46.9,40.4,30.07,SE,143,0.0,1.1,78,0.00,CLR,SCT,0.00,WeatherDisplay:10.37,2013-05-02 09:51:00,
2013-05-02 05:56:00,47.0,40.5,30.07,SE,143,0.0,0.0,78,0.00,CLR,SCT,0.00,WeatherDisplay:10.37,2013-05-02 09:56:00,
2013-05-02 06:01:00,47.1,40.6,30.07,SE,143,0.0,0.0,78,0.00,CLR,SCT,0.00,WeatherDisplay:10.37,2013-05-02 10:01:00,
2013-05-02 06:06:00,47.1,40.3,30.07,SE,143,0.0,0.0,77,0.00,CLR,SCT,0.00,WeatherDisplay:10.37,2013-05-02 10:06:00,
2013-05-02 06:11:00,47.0,40.2,30.07,SE,143,0.0,0.0,77,0.00,CLR,SCT,0.00,WeatherDisplay:10.37,2013-05-02 10:11:00,
2013-05-02 06:16:00,47.1,40.3,30.08,SE,143,0.0,0.0,77,0.00,CLR,SCT,0.00,WeatherDisplay:10.37,2013-05-02 10:16:00,
2013-05-02 06:21:00,47.2,40.4,30.08,SE,143,0.0,0.0,77,0.00,CLR,SCT,0.00,WeatherDisplay:10.37,2013-05-02 10:21:00,
2013-05-02 06:26:00,47.2,40.4,30.08,SE,143,0.0,0.0,77,0.00,CLR,SCT,0.00,WeatherDisplay:10.37,2013-05-02 10:26:00,
2013-05-02 06:31:00,47.1,40.3,30.08,SE,143,0.0,0.0,77,0.00,CLR,SCT,0.00,WeatherDisplay:10.37,2013-05-02 10:31:00,
2013-05-02 06:36:00,47.1,40.3,30.08,SE,143,0.0,0.0,77,0.00,CLR,SCT,0.00,WeatherDisplay:10.37,2013-05-02 10:36:00,
2013-05-02 06:41:00,47.1,40.3,30.08,SE,143,0.0,0.0,77,0.00,CLR,SCT,0.00,WeatherDisplay:10.37,2013-05-02 10:41:00,
2013-05-02 06:46:00,47.1,40.3,30.09,SE,143,0.0,0.0,77,0.00,CLR,SCT,0.00,WeatherDisplay:10.37,2013-05-02 10:46:00,
2013-05-02 06:51:00,47.1,40.3,30.09,SE,143,0.0,0.0,77,0.00,CLR,SCT,0.00,WeatherDisplay:10.37,2013-05-02 10:51:00,
2013-05-02 06:56:00,47.4,40.6,30.09,SE,143,0.0,0.0,77,0.00,CLR,SCT,0.00,WeatherDisplay:10.37,2013-05-02 10:56:00,
2013-05-02 07:01:00,47.8,40.6,30.09,SE,143,0.2,1.0,76,0.00,CLR,SCT,0.00,WeatherDisplay:10.37,2013-05-02 11:01:00,
2013-05-02 07:06:00,48.3,40.7,30.09,SE,143,0.3,1.1,75,0.00,CLR,SCT,0.00,WeatherDisplay:10.37,2013-05-02 11:06:00,
2013-05-02 07:11:00,48.7,40.8,30.10,SE,143,0.5,1.1,74,0.00,CLR,SCT,0.00,WeatherDisplay:10.37,2013-05-02 11:11:00,
2013-05-02 07:16:00,49.2,40.9,30.10,SE,143,0.2,1.1,73,0.00,CLR,SCT,0.00,WeatherDisplay:10.37,2013-05-02 11:16:00,
2013-05-02 07:21:00,49.8,41.1,30.10,SE,143,0.0,0.0,72,0.00,CLR,SCT,0.00,WeatherDisplay:10.37,2013-05-02 11:21:00,
2013-05-02 07:26:00,50.3,41.6,30.10,SE,143,0.0,0.0,72,0.00,CLR,SCT,0.00,WeatherDisplay:10.37,2013-05-02 11:26:00,
2013-05-02 07:31:00,50.8,42.1,30.10,SE,142,0.0,1.1,72,0.00,CLR,SCT,0.00,WeatherDisplay:10.37,2013-05-02 11:31:00,
2013-05-02 07:36:00,51.0,43.0,30.11,SE,142,0.0,0.0,74,0.00,CLR,SCT,0.00,WeatherDisplay:10.37,2013-05-02 11:36:00,
2013-05-02 07:41:00,50.7,42.4,30.11,SE,142,0.0,0.0,73,0.00,CLR,SCT,0.00,WeatherDisplay:10.37,2013-05-02 11:41:00,
2013-05-02 07:46:00,50.3,42.3,30.11,SE,142,0.6,1.1,74,0.00,CLR,SCT,0.00,WeatherDisplay:10.37,2013-05-02 11:46:00,
2013-05-02 07:51:00,50.3,42.0,30.11,SE,142,0.7,2.0,73,0.00,CLR,SCT,0.00,WeatherDisplay:10.37,2013-05-02 11:51:00,
2013-05-02 07:56:00,50.4,41.3,30.11,ENE,59,1.1,2.3,71,0.00,CLR,SCT,0.00,WeatherDisplay:10.37,2013-05-02 11:56:00,
2013-05-02 08:01:00,50.8,41.7,30.11,ENE,59,0.5,1.1,71,0.00,CLR,SCT,0.00,WeatherDisplay:10.37,2013-05-02 12:01:00,
2013-05-02 08:06:00,51.1,41.3,30.11,NNE,31,0.0,0.0,69,0.00,CLR,SCT,0.00,WeatherDisplay:10.37,2013-05-02 12:06:00,
2013-05-02 08:11:00,51.5,42.0,30.11,NNE,31,0.1,1.1,70,0.00,CLR,SCT,0.00,WeatherDisplay:10.37,2013-05-02 12:11:00,
2013-05-02 08:16:00,52.2,42.0,30.11,NNE,31,0.0,0.0,68,0.00,CLR,SCT,0.00,WeatherDisplay:10.37,2013-05-02 12:16:00,
2013-05-02 08:21:00,53.0,41.9,30.11,North,355,2.0,3.5,66,0.00,CLR,SCT,0.00,WeatherDisplay:10.37,2013-05-02 12:21:00,
2013-05-02 08:26:00,54.0,42.9,30.11,North,355,1.2,2.3,66,0.00,CLR,SCT,0.00,WeatherDisplay:10.37,2013-05-02 12:26:00,
2013-05-02 08:31:00,54.8,42.9,30.11,North,355,0.3,1.1,64,0.00,CLR,SCT,0.00,WeatherDisplay:10.37,2013-05-02 12:31:00,
2013-05-02 08:36:00,55.3,42.5,30.11,North,355,0.6,1.1,62,0.00,CLR,SCT,0.00,WeatherDisplay:10.37,2013-05-02 12:36:00,
2013-05-02 08:41:00,55.8,43.0,30.11,NW,319,0.7,1.1,62,0.00,CLR,SCT,0.00,WeatherDisplay:10.37,2013-05-02 12:41:00,
2013-05-02 08:46:00,56.2,43.3,30.11,NW,320,1.2,3.5,62,0.00,CLR,SCT,0.00,WeatherDisplay:10.37,2013-05-02 12:46:00,
2013-05-02 08:51:00,56.5,43.2,30.11,NW,320,1.9,3.5,61,0.00,CLR,SCT,0.00,WeatherDisplay:10.37,2013-05-02 12:51:00,
2013-05-02 08:56:00,56.8,43.1,30.11,NW,319,1.3,2.3,60,0.00,CLR,SCT,0.00,WeatherDisplay:10.37,2013-05-02 12:56:00,
2013-05-02 09:01:00,57.0,41.9,30.11,NW,319,0.6,2.3,57,0.00,CLR,SCT,0.00,WeatherDisplay:10.37,2013-05-02 13:01:00,
2013-05-02 09:06:00,57.3,42.2,30.11,NW,315,0.7,3.5,57,0.00,CLR,SCT,0.00,WeatherDisplay:10.37,2013-05-02 13:06:00,
2013-05-02 09:11:00,57.7,42.1,30.11,NW,315,0.9,2.3,56,0.00,CLR,SCT,0.00,WeatherDisplay:10.37,2013-05-02 13:11:00,
2013-05-02 09:16:00,58.0,42.4,30.11,NW,315,1.2,2.3,56,0.00,CLR,SCT,0.00,WeatherDisplay:10.37,2013-05-02 13:16:00,
2013-05-02 09:21:00,58.2,42.6,30.11,NNW,329,1.6,2.3,56,0.00,CLR,SCT,0.00,WeatherDisplay:10.37,2013-05-02 13:21:00,
2013-05-02 09:26:00,58.6,42.9,30.11,NW,325,1.2,3.5,56,0.00,CLR,SCT,0.00,WeatherDisplay:10.37,2013-05-02 13:26:00,
2013-05-02 09:31:00,59.1,43.4,30.11,NW,317,1.0,2.3,56,0.00,CLR,SCT,0.00,WeatherDisplay:10.37,2013-05-02 13:31:00,
2013-05-02 09:36:00,59.3,43.6,30.11,NW,309,0.5,2.3,56,0.00,CLR,SCT,0.00,WeatherDisplay:10.37,2013-05-02 13:36:00,
2013-05-02 09:41:00,59.7,44.0,30.11,WNW,294,1.7,3.5,56,0.00,CLR,SCT,0.00,WeatherDisplay:10.37,2013-05-02 13:41:00,
2013-05-02 09:46:00,60.3,43.6,30.11,SSE,164,0.6,2.3,54,0.00,CLR,SCT,0.00,WeatherDisplay:10.37,2013-05-02 13:46:00,
2013-05-02 09:51:00,61.7,42.3,30.11,WNW,290,1.8,3.5,49,0.00,CLR,SCT,0.00,WeatherDisplay:10.37,2013-05-02 13:51:00,
2013-05-02 09:56:00,62.4,37.7,30.10,WNW,297,0.9,2.3,40,0.00,CLR,SCT,0.00,WeatherDisplay:10.37,2013-05-02 13:56:00,
2013-05-02 10:01:00,62.6,42.1,30.10,NW,319,1.8,2.3,47,0.00,CLR,SCT,0.00,WeatherDisplay:10.37,2013-05-02 14:01:00,
2013-05-02 10:06:00,63.2,40.9,30.10,NW,315,1.4,3.5,44,0.00,CLR,SCT,0.00,WeatherDisplay:10.37,2013-05-02 14:06:00,
2013-05-02 10:11:00,63.1,40.2,30.11,NW,306,2.2,5.0,43,0.00,CLR,SCT,0.00,WeatherDisplay:10.37,2013-05-02 14:11:00,
2013-05-02 10:16:00,63.4,41.1,30.11,West,278,1.3,3.5,44,0.00,CLR,SCT,0.00,WeatherDisplay:10.37,2013-05-02 14:16:00,
2013-05-02 10:21:00,63.6,41.3,30.11,WSW,242,2.4,3.5,44,0.00,CLR,SCT,0.00,WeatherDisplay:10.37,2013-05-02 14:21:00,
2013-05-02 10:26:00,63.5,40.0,30.11,WSW,252,0.8,1.1,42,0.00,CLR,SCT,0.00,WeatherDisplay:10.37,2013-05-02 14:26:00,
2013-05-02 10:31:00,64.6,41.6,30.11,NNE,19,0.8,3.5,43,0.00,CLR,SCT,0.00,WeatherDisplay:10.37,2013-05-02 14:31:00,
2013-05-02 10:36:00,65.0,41.3,30.11,WNW,300,3.2,4.0,42,0.00,CLR,SCT,0.00,WeatherDisplay:10.37,2013-05-02 14:36:00,
2013-05-02 10:41:00,64.4,40.2,30.11,SSW,196,1.5,3.5,41,0.00,CLR,SCT,0.00,WeatherDisplay:10.37,2013-05-02 14:41:00,
2013-05-02 10:46:00,64.5,40.9,30.11,SSE,156,0.1,1.1,42,0.00,CLR,SCT,0.00,WeatherDisplay:10.37,2013-05-02 14:46:00,
2013-05-02 10:51:00,66.5,42.7,30.10,NNW,330,1.6,3.5,42,0.00,CLR,SCT,0.00,WeatherDisplay:10.37,2013-05-02 14:51:00,
2013-05-02 10:56:00,66.5,40.1,30.11,NNE,14,3.9,5.8,38,0.00,CLR,SCT,0.00,WeatherDisplay:10.37,2013-05-02 14:56:00,
2013-05-02 11:01:00,65.6,40.0,30.11,WNW,286,2.2,4.0,39,0.00,CLR,SCT,0.00,WeatherDisplay:10.37,2013-05-02 15:01:00,
2013-05-02 11:06:00,66.1,41.1,30.10,WNW,302,0.9,2.0,40,0.00,CLR,SCT,0.00,WeatherDisplay:10.37,2013-05-02 15:06:00,
2013-05-02 11:11:00,66.2,40.5,30.10,NE,39,0.6,1.1,39,0.00,CLR,SCT,0.00,WeatherDisplay:10.37,2013-05-02 15:11:00,
2013-05-02 11:16:00,67.8,41.9,30.10,NW,326,0.4,1.1,39,0.00,CLR,SCT,0.00,WeatherDisplay:10.37,2013-05-02 15:16:00,
2013-05-02 11:21:00,67.9,41.3,30.10,SW,232,1.3,2.3,38,0.00,CLR,SCT,0.00,WeatherDisplay:10.37,2013-05-02 15:21:00,
2013-05-02 11:26:00,67.6,40.4,30.10,SSW,205,2.3,3.5,37,0.00,CLR,SCT,0.00,WeatherDisplay:10.37,2013-05-02 15:26:00,
2013-05-02 11:31:00,67.9,42.0,30.10,SW,214,2.3,5.0,39,0.00,CLR,SCT,0.00,WeatherDisplay:10.37,2013-05-02 15:31:00,
2013-05-02 11:36:00,67.5,39.6,30.09,SW,215,0.9,4.6,36,0.00,CLR,SCT,0.00,WeatherDisplay:10.37,2013-05-02 15:36:00,
2013-05-02 11:41:00,67.8,40.6,30.09,SW,221,0.3,2.3,37,0.00,CLR,SCT,0.00,WeatherDisplay:10.37,2013-05-02 15:41:00,
2013-05-02 11:46:00,68.6,40.6,30.09,WNW,288,0.5,3.5,36,0.00,CLR,SCT,0.00,WeatherDisplay:10.37,2013-05-02 15:46:00,
2013-05-02 11:51:00,69.7,40.8,30.09,WNW,288,3.3,4.0,35,0.00,CLR,SCT,0.00,WeatherDisplay:10.37,2013-05-02 15:51:00,
2013-05-02 11:56:00,69.2,40.4,30.08,NW,306,3.6,4.6,35,0.00,CLR,SCT,0.00,WeatherDisplay:10.37,2013-05-02 15:56:00,
2013-05-02 12:01:00,69.8,40.2,30.08,South,170,4.0,4.6,34,0.00,CLR,SCT,0.00,WeatherDisplay:10.37,2013-05-02 16:01:00,
2013-05-02 12:06:00,69.0,39.4,30.08,SSE,165,2.3,3.5,34,0.00,CLR,SCT,0.00,WeatherDisplay:10.37,2013-05-02 16:06:00,
2013-05-02 12:11:00,69.4,42.0,30.08,WNW,288,0.8,3.5,37,0.00,CLR,SCT,0.00,WeatherDisplay:10.37,2013-05-02 16:11:00,
2013-05-02 12:16:00,70.5,40.8,30.07,SSE,147,1.0,3.5,34,0.00,CLR,SCT,0.00,WeatherDisplay:10.37,2013-05-02 16:16:00,
2013-05-02 12:21:00,70.1,41.2,30.07,SSE,150,1.7,4.0,35,0.00,CLR,SCT,0.00,WeatherDisplay:10.37,2013-05-02 16:21:00,
2013-05-02 12:26:00,69.3,40.5,30.07,WSW,239,2.8,5.0,35,0.00,CLR,SCT,0.00,WeatherDisplay:10.37,2013-05-02 16:26:00,
2013-05-02 12:31:00,69.0,43.7,30.07,SSW,200,2.0,4.6,40,0.00,CLR,SCT,0.00,WeatherDisplay:10.37,2013-05-02 16:31:00,
2013-05-02 12:36:00,69.5,39.9,30.07,WSW,246,2.8,5.0,34,0.00,CLR,SCT,0.00,WeatherDisplay:10.37,2013-05-02 16:36:00,
2013-05-02 12:41:00,69.5,41.4,30.06,SW,222,0.7,3.5,36,0.00,CLR,SCT,0.00,WeatherDisplay:10.37,2013-05-02 16:41:00,
2013-05-02 12:46:00,70.5,40.8,30.06,South,188,0.4,3.5,34,0.00,CLR,SCT,0.00,WeatherDisplay:10.37,2013-05-02 16:46:00,
2013-05-02 12:51:00,70.7,43.8,30.06,South,177,1.2,4.0,38,0.00,CLR,SCT,0.00,WeatherDisplay:10.37,2013-05-02 16:51:00,
2013-05-02 12:56:00,70.6,39.3,30.06,SSW,193,1.2,2.3,32,0.00,CLR,SCT,0.00,WeatherDisplay:10.37,2013-05-02 16:56:00,
2013-05-02 13:01:00,71.4,40.8,30.06,West,266,0.9,2.3,33,0.00,CLR,SCT,0.00,WeatherDisplay:10.37,2013-05-02 17:01:00,
2013-05-02 13:06:00,72.4,40.9,30.05,SSW,198,0.4,2.3,32,0.00,CLR,SCT,0.00,WeatherDisplay:10.37,2013-05-02 17:06:00,
2013-05-02 13:11:00,72.3,40.0,30.05,SSW,196,1.5,4.0,31,0.00,CLR,SCT,0.00,WeatherDisplay:10.37,2013-05-02 17:11:00,
2013-05-02 13:16:00,71.5,40.1,30.05,SW,219,3.0,4.6,32,0.00,CLR,SCT,0.00,WeatherDisplay:10.37,2013-05-02 17:16:00,
2013-05-02 13:21:00,71.9,40.4,30.05,SSE,167,2.7,3.5,32,0.00,CLR,SCT,0.00,WeatherDisplay:10.37,2013-05-02 17:21:00,
2013-05-02 13:26:00,73.0,39.7,30.05,SW,236,2.1,3.5,30,0.00,CLR,SCT,0.00,WeatherDisplay:10.37,2013-05-02 17:26:00,
2013-05-02 13:31:00,72.8,40.4,30.05,WSW,238,0.5,2.3,31,0.00,CLR,SCT,0.00,WeatherDisplay:10.37,2013-05-02 17:31:00,
2013-05-02 13:36:00,73.0,39.7,30.04,SE,140,2.7,3.5,30,0.00,CLR,SCT,0.00,WeatherDisplay:10.37,2013-05-02 17:36:00,
2013-05-02 13:41:00,73.1,40.7,30.04,SSE,167,2.8,4.0,31,0.00,CLR,SCT,0.00,WeatherDisplay:10.37,2013-05-02 17:41:00,
2013-05-02 13:46:00,73.8,41.3,30.04,SE,136,2.7,3.5,31,0.00,CLR,SCT,0.00,WeatherDisplay:10.37,2013-05-02 17:46:00,
2013-05-02 13:51:00,74.5,41.0,30.04,SSE,166,1.9,5.8,30,0.00,CLR,SCT,0.00,WeatherDisplay:10.37,2013-05-02 17:51:00,
2013-05-02 13:56:00,73.5,41.0,30.04,ENE,70,1.6,4.6,31,0.00,CLR,SCT,0.00,WeatherDisplay:10.37,2013-05-02 17:56:00,
2013-05-02 14:01:00,74.6,40.2,30.04,North,5,1.5,3.5,29,0.00,CLR,SCT,0.00,WeatherDisplay:10.37,2013-05-02 18:01:00,
2013-05-02 14:06:00,74.4,39.2,30.04,SSE,147,0.9,2.3,28,0.00,CLR,SCT,0.00,WeatherDisplay:10.37,2013-05-02 18:06:00,
2013-05-02 14:11:00,74.4,40.1,30.04,SSW,198,2.5,4.6,29,0.00,CLR,SCT,0.00,WeatherDisplay:10.37,2013-05-02 18:11:00,
2013-05-02 14:16:00,73.6,39.4,30.03,SW,222,1.1,3.5,29,0.00,CLR,SCT,0.00,WeatherDisplay:10.37,2013-05-02 18:16:00,
2013-05-02 14:21:00,73.8,39.5,30.03,South,188,2.9,3.5,29,0.00,CLR,SCT,0.00,WeatherDisplay:10.37,2013-05-02 18:21:00,
2013-05-02 14:26:00,73.7,39.5,30.03,ENE,69,1.1,3.5,29,0.00,CLR,SCT,0.00,WeatherDisplay:10.37,2013-05-02 18:26:00,
2013-05-02 14:31:00,74.8,43.8,30.03,SSE,148,0.5,1.1,33,0.00,CLR,SCT,0.00,WeatherDisplay:10.37,2013-05-02 18:31:00,
2013-05-02 14:36:00,75.3,39.0,30.03,South,173,3.8,5.8,27,0.00,CLR,SCT,0.00,WeatherDisplay:10.37,2013-05-02 18:36:00,
2013-05-02 14:41:00,75.3,39.9,30.02,South,171,3.4,5.0,28,0.00,CLR,SCT,0.00,WeatherDisplay:10.37,2013-05-02 18:41:00,
2013-05-02 14:46:00,74.1,38.9,30.02,SSW,213,1.8,4.0,28,0.00,CLR,SCT,0.00,WeatherDisplay:10.37,2013-05-02 18:46:00,
2013-05-02 14:51:00,75.0,39.7,30.02,South,172,2.0,3.5,28,0.00,CLR,SCT,0.00,WeatherDisplay:10.37,2013-05-02 18:51:00,
2013-05-02 14:56:00,74.4,39.2,30.01,SSE,167,1.8,4.6,28,0.00,CLR,SCT,0.00,WeatherDisplay:10.37,2013-05-02 18:56:00,
2013-05-02 15:01:00,75.4,40.0,30.01,SSE,153,2.4,3.5,28,0.00,CLR,SCT,0.00,WeatherDisplay:10.37,2013-05-02 19:01:00,
2013-05-02 15:06:00,75.5,39.2,30.01,SW,216,1.6,2.3,27,0.00,CLR,SCT,0.00,WeatherDisplay:10.37,2013-05-02 19:06:00,
2013-05-02 15:11:00,75.6,40.2,30.01,SE,134,0.9,2.3,28,0.00,CLR,SCT,0.00,WeatherDisplay:10.37,2013-05-02 19:11:00,
2013-05-02 15:16:00,76.5,39.0,30.01,East,101,2.7,4.6,26,0.00,CLR,SCT,0.00,WeatherDisplay:10.37,2013-05-02 19:16:00,
2013-05-02 15:21:00,75.4,38.1,30.00,SE,139,3.7,5.0,26,0.00,CLR,SCT,0.00,WeatherDisplay:10.37,2013-05-02 19:21:00,
2013-05-02 15:26:00,75.0,37.8,30.00,South,169,1.9,3.5,26,0.00,CLR,SCT,0.00,WeatherDisplay:10.37,2013-05-02 19:26:00,
2013-05-02 15:31:00,75.9,41.3,30.00,WSW,237,0.4,1.1,29,0.00,CLR,SCT,0.00,WeatherDisplay:10.37,2013-05-02 19:31:00,
2013-05-02 15:36:00,75.9,38.5,30.00,SSE,167,3.8,4.6,26,0.00,CLR,SCT,0.00,WeatherDisplay:10.37,2013-05-02 19:36:00,
2013-05-02 15:41:00,75.3,39.0,30.00,SW,232,1.3,2.3,27,0.00,CLR,SCT,0.00,WeatherDisplay:10.37,2013-05-02 19:41:00,
2013-05-02 15:46:00,75.4,39.1,30.00,SSE,149,0.8,2.3,27,0.00,CLR,SCT,0.00,WeatherDisplay:10.37,2013-05-02 19:46:00,
2013-05-02 15:51:00,76.3,39.8,29.99,West,277,0.0,1.1,27,0.00,CLR,SCT,0.00,WeatherDisplay:10.37,2013-05-02 19:51:00,
2013-05-02 15:56:00,75.8,39.4,29.99,SSE,161,3.5,4.6,27,0.00,CLR,SCT,0.00,WeatherDisplay:10.37,2013-05-02 19:56:00,
2013-05-02 16:01:00,74.6,37.4,29.99,SSE,163,2.2,4.6,26,0.00,CLR,SCT,0.00,WeatherDisplay:10.37,2013-05-02 20:01:00,
2013-05-02 16:06:00,74.4,38.2,29.99,SE,130,2.4,3.5,27,0.00,CLR,SCT,0.00,WeatherDisplay:10.37,2013-05-02 20:06:00,
2013-05-02 16:11:00,74.6,39.3,29.99,East,90,0.3,1.1,28,0.00,CLR,SCT,0.00,WeatherDisplay:10.37,2013-05-02 20:11:00,
2013-05-02 16:16:00,75.3,39.0,29.99,North,360,1.4,4.6,27,0.00,CLR,SCT,0.00,WeatherDisplay:10.37,2013-05-02 20:16:00,
2013-05-02 16:21:00,75.8,38.5,29.99,WSW,245,2.1,3.5,26,0.00,CLR,SCT,0.00,WeatherDisplay:10.37,2013-05-02 20:21:00,
2013-05-02 16:26:00,75.4,38.1,29.98,South,173,2.2,3.5,26,0.00,CLR,SCT,0.00,WeatherDisplay:10.37,2013-05-02 20:26:00,
2013-05-02 16:31:00,74.6,38.4,29.98,SSE,148,2.7,4.6,27,0.00,CLR,SCT,0.00,WeatherDisplay:10.37,2013-05-02 20:31:00,
2013-05-02 16:36:00,75.3,39.9,29.98,NNW,336,1.4,2.3,28,0.00,CLR,SCT,0.00,WeatherDisplay:10.37,2013-05-02 20:36:00,
2013-05-02 16:41:00,74.8,37.6,29.98,WNW,284,3.0,5.8,26,0.00,CLR,SCT,0.00,WeatherDisplay:10.37,2013-05-02 20:41:00,
2013-05-02 16:46:00,74.4,38.2,29.98,SSW,192,0.0,1.1,27,0.00,CLR,SCT,0.00,WeatherDisplay:10.37,2013-05-02 20:46:00,
2013-05-02 16:51:00,74.6,38.4,29.98,South,169,3.0,5.0,27,0.00,CLR,SCT,0.00,WeatherDisplay:10.37,2013-05-02 20:51:00,
2013-05-02 16:56:00,74.5,39.2,29.98,NE,47,0.5,2.3,28,0.00,CLR,SCT,0.00,WeatherDisplay:10.37,2013-05-02 20:56:00,
2013-05-02 17:01:00,74.5,38.3,29.98,WSW,240,1.4,2.3,27,0.00,CLR,SCT,0.00,WeatherDisplay:10.37,2013-05-02 21:01:00,
2013-05-02 17:06:00,74.6,39.3,29.97,SSE,159,0.1,2.0,28,0.00,CLR,SCT,0.00,WeatherDisplay:10.37,2013-05-02 21:06:00,
2013-05-02 17:11:00,74.4,37.3,29.97,East,91,1.6,3.5,26,0.00,CLR,SCT,0.00,WeatherDisplay:10.37,2013-05-02 21:11:00,
2013-05-02 17:16:00,74.4,38.2,29.97,South,190,0.8,1.1,27,0.00,CLR,SCT,0.00,WeatherDisplay:10.37,2013-05-02 21:16:00,
2013-05-02 17:21:00,74.5,38.3,29.97,SSW,213,4.1,4.6,27,0.00,CLR,SCT,0.00,WeatherDisplay:10.37,2013-05-02 21:21:00,
2013-05-02 17:26:00,74.2,39.9,29.97,SW,225,2.6,3.5,29,0.00,CLR,SCT,0.00,WeatherDisplay:10.37,2013-05-02 21:26:00,
2013-05-02 17:31:00,73.6,40.2,29.97,South,182,2.5,4.0,30,0.00,CLR,SCT,0.00,WeatherDisplay:10.37,2013-05-02 21:31:00,
2013-05-02 17:36:00,73.4,40.1,29.96,South,178,1.9,3.5,30,0.00,CLR,SCT,0.00,WeatherDisplay:10.37,2013-05-02 21:36:00,
2013-05-02 17:41:00,73.1,40.7,29.96,WNW,292,1.2,3.5,31,0.00,CLR,SCT,0.00,WeatherDisplay:10.37,2013-05-02 21:41:00,
2013-05-02 17:46:00,73.0,40.6,29.97,SSE,163,3.0,4.6,31,0.00,CLR,SCT,0.00,WeatherDisplay:10.37,2013-05-02 21:46:00,
2013-05-02 17:51:00,72.4,39.2,29.97,South,174,2.6,4.6,30,0.00,CLR,SCT,0.00,WeatherDisplay:10.37,2013-05-02 21:51:00,
2013-05-02 17:56:00,72.0,39.7,29.97,SSE,156,3.8,4.6,31,0.00,CLR,SCT,0.00,WeatherDisplay:10.37,2013-05-02 21:56:00,
2013-05-02 18:01:00,71.8,39.5,29.97,SSE,160,3.6,4.6,31,0.00,CLR,SCT,0.00,WeatherDisplay:10.37,2013-05-02 22:01:00,
2013-05-02 18:06:00,71.5,40.1,29.97,SSW,192,1.8,2.3,32,0.00,CLR,SCT,0.00,WeatherDisplay:10.37,2013-05-02 22:06:00,
2013-05-02 18:11:00,71.5,40.1,29.96,SSE,161,2.5,3.5,32,0.00,CLR,SCT,0.00,WeatherDisplay:10.37,2013-05-02 22:11:00,
2013-05-02 18:16:00,71.4,40.0,29.97,South,169,2.9,5.8,32,0.00,CLR,SCT,0.00,WeatherDisplay:10.37,2013-05-02 22:16:00,
2013-05-02 18:21:00,71.3,39.9,29.96,SSE,167,0.3,2.3,32,0.00,CLR,SCT,0.00,WeatherDisplay:10.37,2013-05-02 22:21:00,
2013-05-02 18:26:00,71.0,39.6,29.96,SSE,159,3.2,4.6,32,0.00,CLR,SCT,0.00,WeatherDisplay:10.37,2013-05-02 22:26:00,
2013-05-02 18:31:00,70.7,40.2,29.96,SSE,149,1.0,3.5,33,0.00,CLR,SCT,0.00,WeatherDisplay:10.37,2013-05-02 22:31:00,
2013-05-02 18:36:00,70.5,40.0,29.96,SSE,158,2.8,4.6,33,0.00,CLR,SCT,0.00,WeatherDisplay:10.37,2013-05-02 22:36:00,
2013-05-02 18:41:00,70.5,40.0,29.96,SSE,164,0.2,1.1,33,0.00,CLR,SCT,0.00,WeatherDisplay:10.37,2013-05-02 22:41:00,
2013-05-02 18:46:00,70.4,39.9,29.96,SSE,161,0.8,2.3,33,0.00,CLR,SCT,0.00,WeatherDisplay:10.37,2013-05-02 22:46:00,
2013-05-02 18:51:00,70.3,39.0,29.96,SSE,164,2.1,3.5,32,0.00,CLR,SCT,0.00,WeatherDisplay:10.37,2013-05-02 22:51:00,
2013-05-02 18:56:00,70.1,40.4,29.96,South,176,2.5,3.5,34,0.00,CLR,SCT,0.00,WeatherDisplay:10.37,2013-05-02 22:56:00,
2013-05-02 19:01:00,69.8,40.2,29.96,South,180,2.1,4.6,34,0.00,CLR,SCT,0.00,WeatherDisplay:10.37,2013-05-02 23:01:00,
2013-05-02 19:06:00,69.6,40.0,29.96,South,171,1.6,2.3,34,0.00,CLR,SCT,0.00,WeatherDisplay:10.37,2013-05-02 23:06:00,
2013-05-02 19:11:00,69.4,39.8,29.96,South,173,0.8,2.3,34,0.00,CLR,SCT,0.00,WeatherDisplay:10.37,2013-05-02 23:11:00,
2013-05-02 19:16:00,69.1,38.8,29.97,SSW,195,0.9,2.3,33,0.00,CLR,SCT,0.00,WeatherDisplay:10.37,2013-05-02 23:16:00,
2013-05-02 19:21:00,68.7,39.2,29.97,SSW,194,0.3,1.1,34,0.00,CLR,SCT,0.00,WeatherDisplay:10.37,2013-05-02 23:21:00,
2013-05-02 19:26:00,68.4,38.9,29.96,SSW,195,0.2,1.1,34,0.00,CLR,SCT,0.00,WeatherDisplay:10.37,2013-05-02 23:26:00,
2013-05-02 19:31:00,68.2,39.5,29.96,SSW,194,0.1,1.1,35,0.00,CLR,SCT,0.00,WeatherDisplay:10.37,2013-05-02 23:31:00,
2013-05-02 19:36:00,67.8,39.1,29.96,SSW,194,0.0,1.0,35,0.00,CLR,SCT,0.00,WeatherDisplay:10.37,2013-05-02 23:36:00,
2013-05-02 19:41:00,67.3,38.7,29.96,SSW,194,1.0,1.1,35,0.00,CLR,SCT,0.00,WeatherDisplay:10.37,2013-05-02 23:41:00,
2013-05-02 19:46:00,67.1,38.5,29.96,SSW,194,0.9,2.3,35,0.00,CLR,SCT,0.00,WeatherDisplay:10.37,2013-05-02 23:46:00,
2013-05-02 19:51:00,66.8,38.3,29.96,SSW,194,0.8,2.3,35,0.00,CLR,SCT,0.00,WeatherDisplay:10.37,2013-05-02 23:51:00,
2013-05-02 19:56:00,66.3,39.2,29.96,SSW,194,0.9,1.1,37,0.00,CLR,SCT,0.00,WeatherDisplay:10.37,2013-05-02 23:56:00,
2013-05-02 20:01:00,65.6,39.3,29.96,SSE,155,1.2,2.3,38,0.00,CLR,SCT,0.00,WeatherDisplay:10.37,2013-05-03 00:01:00,
2013-05-02 20:06:00,65.4,39.1,29.96,SSE,155,1.2,2.3,38,0.00,CLR,SCT,0.00,WeatherDisplay:10.37,2013-05-03 00:06:00,
2013-05-02 20:11:00,65.1,38.8,29.96,SSE,155,1.8,3.5,38,0.00,CLR,SCT,0.00,WeatherDisplay:10.37,2013-05-03 00:11:00,
2013-05-02 20:16:00,64.9,39.3,29.97,SSE,155,1.0,2.3,39,0.00,CLR,SCT,0.00,WeatherDisplay:10.37,2013-05-03 00:16:00,
2013-05-02 20:21:00,64.4,39.5,29.97,SSE,155,1.1,2.3,40,0.00,CLR,SCT,0.00,WeatherDisplay:10.37,2013-05-03 00:21:00,
2013-05-02 20:26:00,63.9,39.7,29.97,SSE,155,1.1,2.3,41,0.00,CLR,SCT,0.00,WeatherDisplay:10.37,2013-05-03 00:26:00,
2013-05-02 20:31:00,63.6,40.1,29.97,SSE,155,1.4,3.5,42,0.00,CLR,SCT,0.00,WeatherDisplay:10.37,2013-05-03 00:31:00,
2013-05-02 20:36:00,63.7,40.2,29.97,SSE,155,1.0,2.3,42,0.00,CLR,SCT,0.00,WeatherDisplay:10.37,2013-05-03 00:36:00,
2013-05-02 20:41:00,63.4,39.3,29.97,SSE,155,1.3,2.3,41,0.00,CLR,SCT,0.00,WeatherDisplay:10.37,2013-05-03 00:41:00,
2013-05-02 20:46:00,63.2,40.3,29.98,SSE,155,1.2,2.3,43,0.00,CLR,SCT,0.00,WeatherDisplay:10.37,2013-05-03 00:46:00,
2013-05-02 20:51:00,62.9,40.0,29.98,SE,144,1.2,2.0,43,0.00,CLR,SCT,0.00,WeatherDisplay:10.37,2013-05-03 00:51:00,
2013-05-02 20:56:00,62.9,40.6,29.98,SSE,148,1.8,2.3,44,0.00,CLR,SCT,0.00,WeatherDisplay:10.37,2013-05-03 00:56:00,
2013-05-02 21:01:00,62.5,40.9,29.99,SE,142,3.0,4.0,45,0.00,CLR,SCT,0.00,WeatherDisplay:10.37,2013-05-03 01:01:00,
2013-05-02 21:06:00,62.3,41.8,29.99,ESE,114,1.7,3.5,47,0.00,CLR,SCT,0.00,WeatherDisplay:10.37,2013-05-03 01:06:00,
2013-05-02 21:11:00,62.1,42.7,30.00,East,88,2.3,3.5,49,0.00,CLR,SCT,0.00,WeatherDisplay:10.37,2013-05-03 01:11:00,
2013-05-02 21:16:00,61.9,43.0,30.00,East,92,4.2,5.8,50,0.00,CLR,SCT,0.00,WeatherDisplay:10.37,2013-05-03 01:16:00,
2013-05-02 21:21:00,61.5,44.2,30.01,ESE,121,2.7,5.8,53,0.00,CLR,SCT,0.00,WeatherDisplay:10.37,2013-05-03 01:21:00,
2013-05-02 21:26:00,61.1,44.3,30.01,ESE,116,3.4,5.0,54,0.00,CLR,SCT,0.00,WeatherDisplay:10.37,2013-05-03 01:26:00,
2013-05-02 21:31:00,60.7,44.4,30.01,East,87,5.4,7.0,55,0.00,CLR,SCT,0.00,WeatherDisplay:10.37,2013-05-03 01:31:00,
2013-05-02 21:36:00,60.3,44.5,30.01,SE,140,2.6,5.8,56,0.00,CLR,SCT,0.00,WeatherDisplay:10.37,2013-05-03 01:36:00,
2013-05-02 21:41:00,60.0,44.3,30.02,SE,128,4.9,6.9,56,0.00,CLR,SCT,0.00,WeatherDisplay:10.37,2013-05-03 01:41:00,
2013-05-02 21:46:00,59.7,44.4,30.02,ESE,123,4.0,5.8,57,0.00,CLR,SCT,0.00,WeatherDisplay:10.37,2013-05-03 01:46:00,
2013-05-02 21:51:00,59.3,44.5,30.02,ESE,115,3.6,4.6,58,0.00,CLR,SCT,0.00,WeatherDisplay:10.37,2013-05-03 01:51:00,
2013-05-02 21:56:00,59.0,44.2,30.03,East,98,3.0,4.6,58,0.00,CLR,SCT,0.00,WeatherDisplay:10.37,2013-05-03 01:56:00,
2013-05-02 22:01:00,58.6,43.4,30.03,SE,146,5.9,6.9,57,0.00,CLR,SCT,0.00,WeatherDisplay:10.37,2013-05-03 02:01:00,
2013-05-02 22:06:00,58.2,43.0,30.03,SE,135,5.2,9.2,57,0.00,CLR,SCT,0.00,WeatherDisplay:10.37,2013-05-03 02:06:00,
2013-05-02 22:11:00,57.9,42.8,30.04,ESE,102,4.4,6.9,57,0.00,CLR,SCT,0.00,WeatherDisplay:10.37,2013-05-03 02:11:00,
2013-05-02 22:16:00,57.7,42.6,30.04,ESE,112,4.0,5.0,57,0.00,CLR,SCT,0.00,WeatherDisplay:10.37,2013-05-03 02:16:00,
2013-05-02 22:21:00,57.6,42.0,30.04,ESE,113,4.4,5.8,56,0.00,CLR,SCT,0.00,WeatherDisplay:10.37,2013-05-03 02:21:00,
2013-05-02 22:26:00,57.5,42.4,30.04,SE,138,3.7,6.0,57,0.00,CLR,SCT,0.00,WeatherDisplay:10.37,2013-05-03 02:26:00,
2013-05-02 22:31:00,57.3,41.7,30.04,ESE,122,4.7,5.8,56,0.00,CLR,SCT,0.00,WeatherDisplay:10.37,2013-05-03 02:31:00,
2013-05-02 22:36:00,57.3,42.2,30.04,SE,127,4.6,6.9,57,0.00,CLR,SCT,0.00,WeatherDisplay:10.37,2013-05-03 02:36:00,
2013-05-02 22:41:00,57.2,42.1,30.04,ESE,119,4.6,6.9,57,0.00,CLR,SCT,0.00,WeatherDisplay:10.37,2013-05-03 02:41:00,
2013-05-02 22:46:00,57.0,42.4,30.04,ESE,121,3.9,5.8,58,0.00,CLR,SCT,0.00,WeatherDisplay:10.37,2013-05-03 02:46:00,
2013-05-02 22:51:00,56.9,42.3,30.05,SE,126,2.6,4.6,58,0.00,CLR,SCT,0.00,WeatherDisplay:10.37,2013-05-03 02:51:00,
2013-05-02 22:56:00,56.7,42.1,30.05,East,79,2.4,3.5,58,0.00,CLR,SCT,0.00,WeatherDisplay:10.37,2013-05-03 02:56:00,
2013-05-02 23:01:00,56.6,42.4,30.05,SE,126,3.6,4.6,59,0.00,CLR,SCT,0.00,WeatherDisplay:10.37,2013-05-03 03:01:00,
2013-05-02 23:06:00,56.6,42.4,30.05,ESE,110,3.0,6.9,59,0.00,CLR,SCT,0.00,WeatherDisplay:10.37,2013-05-03 03:06:00,
2013-05-02 23:11:00,56.6,42.4,30.05,SE,127,3.8,4.6,59,0.00,CLR,SCT,0.00,WeatherDisplay:10.37,2013-05-03 03:11:00,
2013-05-02 23:16:00,56.6,42.4,30.05,SE,126,1.1,2.3,59,0.00,CLR,SCT,0.00,WeatherDisplay:10.37,2013-05-03 03:16:00,
2013-05-02 23:21:00,56.5,42.3,30.05,ESE,122,2.6,3.5,59,0.00,CLR,SCT,0.00,WeatherDisplay:10.37,2013-05-03 03:21:00,
2013-05-02 23:26:00,56.5,41.9,30.05,ESE,122,0.1,1.1,58,0.00,CLR,SCT,0.00,WeatherDisplay:10.37,2013-05-03 03:26:00,
2013-05-02 23:31:00,56.4,41.8,30.05,ESE,117,0.0,0.0,58,0.00,CLR,SCT,0.00,WeatherDisplay:10.37,2013-05-03 03:31:00,
2013-05-02 23:36:00,56.4,42.2,30.05,SSW,206,0.0,0.0,59,0.00,CLR,SCT,0.00,WeatherDisplay:10.37,2013-05-03 03:36:00,
2013-05-02 23:41:00,56.3,42.1,30.05,SSW,206,0.0,0.0,59,0.00,CLR,SCT,0.00,WeatherDisplay:10.37,2013-05-03 03:41:00,
2013-05-02 23:46:00,56.2,42.1,30.05,SSW,205,0.0,0.0,59,0.00,CLR,SCT,0.00,WeatherDisplay:10.37,2013-05-03 03:46:00,
2013-05-02 23:51:00,56.2,41.6,30.05,SE,133,0.1,1.1,58,0.00,CLR,SCT,0.00,WeatherDisplay:10.37,2013-05-03 03:51:00,
2013-05-02 23:56:00,56.2,42.1,30.06,SE,133,0.0,0.0,59,0.00,CLR,SCT,0.00,WeatherDisplay:10.37,2013-05-03 03:56:00,